Home > Weather > Shizuoka > Past weeks

Flag for Japan Weather for the Past 2 Weeks in Shizuoka, Japan

Now
68 °F

Scattered clouds.


Feels Like: 68 °F
Forecast: 55 / 79 °F
Wind: 10 mph from South

Location: Yokota Ab

Current Time: Apr 30, 2016 at 1:15:02 PM

Latest Report: Apr 30, 2016 at 11:58 AM


Visibility: 10 mi

Pressure: 29.93 "Hg

Humidity: 44%

Dew Point: 45 °F

Location of ShizuokaLocation

Historic Weather in Shizuoka — Graph

°F

Shizuoka Temperature Yesterday

Maximum temperature yesterday: 70 °F (at 2:03 PM)
Minimum temperature yesterday: 54 °F (at 11:58 PM)
Average temperature yesterday: 60 °F

High & Low Weather Summary for the Past Weeks

 TemperatureHumidityPressure
High79 °F (Apr 17, 2:58 PM)100% (Apr 22, 5:56 AM)30.36 "Hg (Apr 22, 5:56 AM)
Low43 °F (Apr 16, 5:58 AM)24% (Apr 15, 1:58 PM)29.38 "Hg (Apr 29, 12:58 AM)
Average60 °F69%29.93 "Hg
* Reported Apr 15 11:58 AM — Apr 30 11:58 AM, Shizuoka, Weather by CustomWeather, © 2016

Note: Actual official high and low records may vary slightly from our data, if they occured in-between our weather recording intervals... More about our weather records

Advertising

Shizuoka Weather History for the Previous 24 Hours

Scroll right to see more
 ConditionsComfort  
Time TempWeatherWind HumidityBarometerVisibility
11:58 AM
Sat, Apr 30
68 °FScattered clouds.10 mph44%29.93 "Hg10 mi
10:58 AM67 °FSunny.8 mph36%29.94 "Hg10 mi
9:58 AM64 °FSunny.3 mph32%29.96 "Hg10 mi
8:58 AM62 °FSunny.3 mph29%29.96 "Hg10 mi
7:58 AM59 °FSunny.1 mph30%29.96 "Hg10 mi
6:58 AM53 °FSunny.3 mph46%29.95 "Hg10 mi
5:58 AM47 °FSunny.1 mph57%29.93 "Hg10 mi
4:58 AM47 °FSunny.8 mph50%29.90 "Hg10 mi
3:58 AM49 °FClear.6 mph46%29.89 "Hg10 mi
2:58 AM49 °FClear.12 mph44%29.87 "Hg10 mi
1:58 AM54 °FClear.7 mph32%29.85 "Hg10 mi
12:58 AM56 °FClear.9 mph30%29.85 "Hg10 mi
11:58 PM
Fri, Apr 29
54 °FClear.7 mph31%29.84 "Hg10 mi
10:58 PM55 °FClear.14 mph29%29.83 "Hg10 mi
9:58 PM55 °FClear.6 mph31%29.85 "Hg10 mi
8:58 PM55 °FClear.10 mph31%29.83 "Hg10 mi
7:58 PM58 °FClear.21 mph26%29.77 "Hg10 mi
6:58 PM57 °FClear.12 mph29%29.74 "Hg10 mi
5:58 PM57 °FSunny.18 mph35%29.69 "Hg10 mi
4:58 PM61 °FSunny.26 mph30%29.64 "Hg10 mi
3:58 PM65 °FSunny.23 mph28%29.59 "Hg10 mi
2:58 PM67 °FSunny.31 mph25%29.54 "Hg10 mi
2:03 PM70 °FStrong thunderstorms. Sunny.31 mph25%29.53 "Hg10 mi
Weather by CustomWeather, © 2016

See weather overviewHow to use our weather pages